Tabellarische Ansicht des 3.7.2021


Die einzelnen Werte des Tages

Uhrzeit Temperatur Luftdruck Luftfeuchte Wind Hi-Wind Taupunkt THW Index Wind Chill Heat Index Solar- strahlung Regen

00:00

13.8 C

1013.9 hpa

84 %

0.0 km/h aus 116

0.0 km/h aus ---

11.1 C

13.7 C

13.8 C

13.7 C

0 W/m

0.00 mm

00:05

13.7 C

1013.9 hpa

84 %

0.0 km/h aus 112

0.0 km/h aus ---

11.0 C

13.6 C

13.7 C

13.6 C

0 W/m

0.00 mm

00:10

13.6 C

1013.9 hpa

85 %

0.0 km/h aus 116

0.0 km/h aus ---

11.1 C

13.6 C

13.6 C

13.6 C

0 W/m

0.00 mm

00:15

13.5 C

1013.9 hpa

85 %

0.0 km/h aus 117

0.0 km/h aus ---

11.0 C

13.4 C

13.5 C

13.4 C

0 W/m

0.00 mm

00:20

13.4 C

1013.9 hpa

85 %

0.0 km/h aus 116

0.0 km/h aus ---

11.0 C

13.4 C

13.4 C

13.4 C

0 W/m

0.00 mm

00:25

13.3 C

1013.9 hpa

85 %

0.0 km/h aus 116

1.6 km/h aus WNW

10.9 C

13.3 C

13.3 C

13.3 C

0 W/m

0.00 mm

00:30

13.3 C

1013.9 hpa

85 %

0.0 km/h aus 114

0.0 km/h aus ---

10.8 C

13.2 C

13.3 C

13.2 C

0 W/m

0.00 mm

00:35

13.2 C

1013.9 hpa

85 %

0.0 km/h aus 117

0.0 km/h aus ---

10.8 C

13.2 C

13.2 C

13.2 C

0 W/m

0.00 mm

00:40

13.1 C

1013.9 hpa

85 %

0.0 km/h aus 116

0.0 km/h aus ---

10.6 C

13.1 C

13.1 C

13.1 C

0 W/m

0.00 mm

00:45

13.1 C

1014.0 hpa

85 %

0.0 km/h aus 117

0.0 km/h aus ---

10.6 C

13.0 C

13.1 C

13.0 C

0 W/m

0.00 mm

00:50

13.0 C

1014.0 hpa

86 %

0.0 km/h aus 117

0.0 km/h aus ---

10.7 C

12.9 C

13.0 C

12.9 C

0 W/m

0.00 mm

00:55

12.9 C

1014.0 hpa

86 %

0.0 km/h aus 114

0.0 km/h aus ---

10.7 C

12.9 C

12.9 C

12.9 C

0 W/m

0.00 mm

01:00

12.9 C

1013.9 hpa

86 %

0.0 km/h aus 115

0.0 km/h aus ---

10.6 C

12.8 C

12.9 C

12.8 C

0 W/m

0.00 mm

01:05

12.8 C

1013.9 hpa

86 %

0.0 km/h aus 117

0.0 km/h aus ---

10.5 C

12.8 C

12.8 C

12.8 C

0 W/m

0.00 mm

01:10

12.8 C

1013.9 hpa

86 %

0.0 km/h aus 117

0.0 km/h aus ---

10.5 C

12.8 C

12.8 C

12.8 C

0 W/m

0.00 mm

01:15

12.8 C

1013.8 hpa

87 %

0.0 km/h aus 116

0.0 km/h aus ---

10.7 C

12.8 C

12.8 C

12.8 C

0 W/m

0.00 mm

01:20

12.8 C

1013.8 hpa

87 %

0.0 km/h aus 114

0.0 km/h aus ---

10.7 C

12.8 C

12.8 C

12.8 C

0 W/m

0.00 mm

01:25

12.8 C

1013.8 hpa

88 %

0.0 km/h aus 116

0.0 km/h aus ---

10.8 C

12.8 C

12.8 C

12.8 C

0 W/m

0.00 mm

01:30

12.7 C

1013.8 hpa

88 %

0.0 km/h aus 118

0.0 km/h aus ---

10.8 C

12.7 C

12.7 C

12.7 C

0 W/m

0.00 mm

01:35

12.7 C

1013.8 hpa

87 %

0.0 km/h aus 117

0.0 km/h aus ---

10.6 C

12.7 C

12.7 C

12.7 C

0 W/m

0.00 mm

01:40

12.6 C

1013.8 hpa

87 %

0.0 km/h aus 116

0.0 km/h aus ---

10.4 C

12.6 C

12.6 C

12.6 C

0 W/m

0.00 mm

01:45

12.5 C

1013.7 hpa

88 %

0.0 km/h aus 115

0.0 km/h aus ---

10.6 C

12.5 C

12.5 C

12.5 C

0 W/m

0.00 mm

01:50

12.4 C

1013.7 hpa

88 %

0.0 km/h aus 114

0.0 km/h aus ---

10.5 C

12.4 C

12.4 C

12.4 C

0 W/m

0.00 mm

01:55

12.4 C

1013.7 hpa

88 %

0.0 km/h aus 117

0.0 km/h aus ---

10.5 C

12.4 C

12.4 C

12.4 C

0 W/m

0.00 mm

02:00

12.3 C

1013.6 hpa

88 %

0.0 km/h aus 117

0.0 km/h aus ---

10.4 C

12.3 C

12.3 C

12.3 C

0 W/m

0.00 mm

02:05

12.3 C

1013.6 hpa

87 %

0.0 km/h aus 117

0.0 km/h aus ---

10.2 C

12.3 C

12.3 C

12.3 C

0 W/m

0.00 mm

02:10

12.2 C

1013.6 hpa

87 %

0.0 km/h aus 115

0.0 km/h aus ---

10.1 C

12.2 C

12.2 C

12.2 C

0 W/m

0.00 mm

02:15

12.2 C

1013.4 hpa

88 %

0.0 km/h aus 115

0.0 km/h aus ---

10.2 C

12.2 C

12.2 C

12.2 C

0 W/m

0.00 mm

02:20

12.1 C

1013.4 hpa

88 %

0.0 km/h aus 116

0.0 km/h aus ---

10.1 C

12.1 C

12.1 C

12.1 C

0 W/m

0.00 mm

02:25

12.1 C

1013.4 hpa

88 %

0.0 km/h aus 117

0.0 km/h aus ---

10.1 C

12.1 C

12.1 C

12.1 C

0 W/m

0.00 mm

02:30

12.0 C

1013.3 hpa

88 %

0.0 km/h aus 117

0.0 km/h aus ---

10.1 C

12.0 C

12.0 C

12.0 C

0 W/m

0.00 mm

02:35

11.9 C

1013.3 hpa

88 %

0.0 km/h aus 117

0.0 km/h aus ---

10.0 C

11.9 C

11.9 C

11.9 C

0 W/m

0.00 mm

02:40

11.9 C

1013.3 hpa

88 %

0.0 km/h aus 115

0.0 km/h aus ---

10.0 C

11.9 C

11.9 C

11.9 C

0 W/m

0.00 mm

02:45

11.9 C

1013.3 hpa

88 %

0.0 km/h aus 116

0.0 km/h aus ---

10.0 C

11.9 C

11.9 C

11.9 C

0 W/m

0.00 mm

02:50

11.8 C

1013.3 hpa

88 %

0.0 km/h aus 116

0.0 km/h aus ---

9.9 C

11.8 C

11.8 C

11.8 C

0 W/m

0.00 mm

02:55

11.8 C

1013.3 hpa

88 %

0.0 km/h aus 117

0.0 km/h aus ---

9.9 C

11.8 C

11.8 C

11.8 C

0 W/m

0.00 mm

03:00

11.8 C

1013.3 hpa

88 %

0.0 km/h aus 117

0.0 km/h aus ---

9.9 C

11.8 C

11.8 C

11.8 C

0 W/m

0.00 mm

03:05

11.7 C

1013.3 hpa

88 %

0.0 km/h aus 115

0.0 km/h aus ---

9.8 C

11.7 C

11.7 C

11.7 C

0 W/m

0.00 mm

03:10

11.7 C

1013.3 hpa

88 %

0.0 km/h aus 115

0.0 km/h aus ---

9.8 C

11.7 C

11.7 C

11.7 C

0 W/m

0.00 mm

03:15

11.7 C

1013.3 hpa

88 %

0.0 km/h aus 117

0.0 km/h aus ---

9.7 C

11.7 C

11.7 C

11.7 C

0 W/m

0.00 mm

03:20

11.6 C

1013.3 hpa

88 %

0.0 km/h aus 117

0.0 km/h aus ---

9.7 C

11.6 C

11.6 C

11.6 C

0 W/m

0.00 mm

03:25

11.6 C

1013.3 hpa

88 %

0.0 km/h aus 117

0.0 km/h aus ---

9.6 C

11.6 C

11.6 C

11.6 C

0 W/m

0.00 mm

03:30

11.6 C

1013.4 hpa

89 %

0.0 km/h aus 115

0.0 km/h aus ---

9.8 C

11.6 C

11.6 C

11.6 C

0 W/m

0.00 mm

03:35

11.4 C

1013.4 hpa

89 %

0.0 km/h aus 113

0.0 km/h aus ---

9.7 C

11.5 C

11.4 C

11.5 C

0 W/m

0.00 mm

03:40

11.4 C

1013.4 hpa

89 %

0.0 km/h aus 117

0.0 km/h aus ---

9.6 C

11.4 C

11.4 C

11.4 C

0 W/m

0.00 mm

03:45

11.3 C

1013.4 hpa

89 %

0.0 km/h aus 116

0.0 km/h aus ---

9.6 C

11.4 C

11.3 C

11.4 C

0 W/m

0.00 mm

03:50

11.3 C

1013.4 hpa

89 %

0.0 km/h aus 117

0.0 km/h aus ---

9.5 C

11.3 C

11.3 C

11.3 C

0 W/m

0.00 mm

03:55

11.3 C

1013.4 hpa

89 %

0.0 km/h aus 117

0.0 km/h aus ---

9.5 C

11.3 C

11.3 C

11.3 C

0 W/m

0.00 mm

04:00

11.2 C

1013.5 hpa

89 %

0.0 km/h aus 114

0.0 km/h aus ---

9.5 C

11.3 C

11.2 C

11.3 C

0 W/m

0.00 mm

04:05

11.2 C

1013.5 hpa

89 %

0.0 km/h aus 115

0.0 km/h aus ---

9.4 C

11.2 C

11.2 C

11.2 C

0 W/m

0.00 mm

04:10

11.1 C

1013.5 hpa

89 %

0.0 km/h aus 116

0.0 km/h aus ---

9.4 C

11.2 C

11.1 C

11.2 C

0 W/m

0.00 mm

04:15

11.1 C

1013.5 hpa

89 %

0.0 km/h aus 117

0.0 km/h aus ---

9.3 C

11.2 C

11.1 C

11.2 C

0 W/m

0.00 mm

04:20

11.1 C

1013.5 hpa

89 %

0.0 km/h aus 117

0.0 km/h aus ---

9.3 C

11.2 C

11.1 C

11.2 C

0 W/m

0.00 mm

04:25

11.0 C

1013.5 hpa

89 %

0.0 km/h aus 115

0.0 km/h aus ---

9.3 C

11.1 C

11.0 C

11.1 C

0 W/m

0.00 mm

04:30

10.9 C

1013.4 hpa

89 %

0.0 km/h aus 115

0.0 km/h aus ---

9.2 C

11.1 C

10.9 C

11.1 C

0 W/m

0.00 mm

04:35

10.9 C

1013.4 hpa

89 %

0.0 km/h aus 117

0.0 km/h aus ---

9.2 C

11.1 C

10.9 C

11.1 C

0 W/m

0.00 mm

04:40

10.9 C

1013.4 hpa

89 %

0.0 km/h aus 117

0.0 km/h aus ---

9.1 C

11.0 C

10.9 C

11.0 C

0 W/m

0.00 mm

04:45

10.8 C

1013.5 hpa

89 %

0.0 km/h aus 118

0.0 km/h aus ---

9.1 C

10.9 C

10.8 C

10.9 C

0 W/m

0.00 mm

04:50

10.8 C

1013.5 hpa

89 %

0.0 km/h aus 116

0.0 km/h aus ---

9.1 C

10.9 C

10.8 C

10.9 C

0 W/m

0.00 mm

04:55

10.7 C

1013.5 hpa

89 %

0.0 km/h aus 113

0.0 km/h aus ---

9.0 C

10.8 C

10.7 C

10.8 C

0 W/m

0.00 mm

05:00

10.7 C

1013.5 hpa

89 %

0.0 km/h aus 117

0.0 km/h aus ---

9.0 C

10.8 C

10.7 C

10.8 C

0 W/m

0.00 mm

05:05

10.7 C

1013.5 hpa

89 %

0.0 km/h aus 116

0.0 km/h aus ---

8.9 C

10.8 C

10.7 C

10.8 C

3 W/m

0.00 mm

05:10

10.6 C

1013.5 hpa

89 %

0.0 km/h aus 117

0.0 km/h aus ---

8.9 C

10.7 C

10.6 C

10.7 C

6 W/m

0.00 mm

05:15

10.6 C

1013.7 hpa

89 %

0.0 km/h aus 115

0.0 km/h aus ---

8.8 C

10.7 C

10.6 C

10.7 C

9 W/m

0.00 mm

05:20

10.6 C

1013.7 hpa

89 %

0.0 km/h aus 113

0.0 km/h aus ---

8.8 C

10.7 C

10.6 C

10.7 C

11 W/m

0.00 mm

05:25

10.6 C

1013.7 hpa

89 %

0.0 km/h aus 115

0.0 km/h aus ---

8.8 C

10.7 C

10.6 C

10.7 C

13 W/m

0.00 mm

05:30

10.6 C

1013.8 hpa

89 %

0.0 km/h aus 117

0.0 km/h aus ---

8.8 C

10.7 C

10.6 C

10.7 C

17 W/m

0.00 mm

05:35

10.6 C

1013.8 hpa

90 %

0.0 km/h aus 116

0.0 km/h aus ---

9.0 C

10.7 C

10.6 C

10.7 C

19 W/m

0.00 mm

05:40

10.6 C

1013.8 hpa

90 %

0.0 km/h aus 115

0.0 km/h aus ---

9.0 C

10.7 C

10.6 C

10.7 C

23 W/m

0.00 mm

05:45

10.6 C

1013.8 hpa

90 %

0.0 km/h aus 115

0.0 km/h aus ---

9.0 C

10.7 C

10.6 C

10.7 C

26 W/m

0.00 mm

05:50

10.6 C

1013.8 hpa

90 %

0.0 km/h aus 116

0.0 km/h aus ---

9.0 C

10.7 C

10.6 C

10.7 C

29 W/m

0.00 mm

05:55

10.7 C

1013.8 hpa

90 %

0.0 km/h aus 116

0.0 km/h aus ---

9.1 C

10.8 C

10.7 C

10.8 C

33 W/m

0.00 mm

06:00

10.7 C

1013.8 hpa

91 %

0.0 km/h aus 116

0.0 km/h aus ---

9.3 C

10.8 C

10.7 C

10.8 C

37 W/m

0.00 mm

06:05

10.8 C

1013.8 hpa

91 %

0.0 km/h aus 117

0.0 km/h aus ---

9.4 C

10.9 C

10.8 C

10.9 C

39 W/m

0.00 mm

06:10

10.9 C

1013.8 hpa

91 %

0.0 km/h aus 117

0.0 km/h aus ---

9.5 C

11.1 C

10.9 C

11.1 C

42 W/m

0.00 mm

06:15

11.1 C

1013.8 hpa

91 %

0.0 km/h aus 114

0.0 km/h aus ---

9.6 C

11.2 C

11.1 C

11.2 C

59 W/m

0.00 mm

06:20

11.2 C

1013.8 hpa

92 %

0.0 km/h aus 113

0.0 km/h aus ---

9.9 C

11.3 C

11.2 C

11.3 C

72 W/m

0.00 mm

06:25

11.5 C

1013.8 hpa

92 %

0.0 km/h aus 117

0.0 km/h aus ---

10.2 C

11.6 C

11.5 C

11.6 C

82 W/m

0.00 mm

06:30

11.9 C

1013.8 hpa

93 %

0.0 km/h aus 117

0.0 km/h aus ---

10.8 C

12.0 C

11.9 C

12.0 C

94 W/m

0.00 mm

06:35

12.3 C

1013.8 hpa

93 %

0.0 km/h aus 117

0.0 km/h aus ---

11.2 C

12.4 C

12.3 C

12.4 C

103 W/m

0.00 mm

06:40

12.7 C

1013.8 hpa

93 %

0.0 km/h aus 115

0.0 km/h aus ---

11.6 C

12.8 C

12.7 C

12.8 C

115 W/m

0.00 mm

06:45

13.1 C

1013.8 hpa

93 %

0.0 km/h aus 115

0.0 km/h aus ---

11.9 C

13.2 C

13.1 C

13.2 C

126 W/m

0.00 mm

06:50

13.3 C

1013.8 hpa

93 %

0.0 km/h aus 117

0.0 km/h aus ---

12.2 C

13.4 C

13.3 C

13.4 C

138 W/m

0.00 mm

06:55

13.5 C

1013.8 hpa

94 %

0.0 km/h aus 118

0.0 km/h aus ---

12.6 C

13.6 C

13.5 C

13.6 C

151 W/m

0.00 mm

07:00

13.7 C

1013.7 hpa

94 %

0.0 km/h aus 117

0.0 km/h aus ---

12.8 C

13.8 C

13.7 C

13.8 C

164 W/m

0.00 mm

07:05

13.9 C

1013.7 hpa

94 %

0.0 km/h aus 115

0.0 km/h aus ---

13.0 C

14.1 C

13.9 C

14.1 C

179 W/m

0.00 mm

07:10

14.2 C

1013.7 hpa

94 %

0.0 km/h aus 115

6.4 km/h aus W

13.2 C

14.3 C

14.2 C

14.3 C

192 W/m

0.00 mm

07:15

14.3 C

1013.6 hpa

94 %

0.0 km/h aus 117

4.8 km/h aus W

13.4 C

14.4 C

14.3 C

14.4 C

205 W/m

0.00 mm

07:20

14.6 C

1013.6 hpa

94 %

0.0 km/h aus 116

3.2 km/h aus W

13.6 C

14.7 C

14.6 C

14.7 C

216 W/m

0.00 mm

07:25

14.8 C

1013.6 hpa

94 %

0.0 km/h aus 116

4.8 km/h aus W

13.8 C

14.9 C

14.8 C

14.9 C

226 W/m

0.00 mm

07:30

14.9 C

1013.6 hpa

94 %

0.0 km/h aus 115

0.0 km/h aus ---

14.0 C

15.2 C

14.9 C

15.2 C

240 W/m

0.00 mm

07:35

15.2 C

1013.6 hpa

94 %

1.6 km/h aus 116

4.8 km/h aus W

14.3 C

15.4 C

15.2 C

15.4 C

249 W/m

0.00 mm

07:40

15.4 C

1013.6 hpa

94 %

0.0 km/h aus 117

0.0 km/h aus ---

14.5 C

15.7 C

15.4 C

15.7 C

264 W/m

0.00 mm

07:45

15.7 C

1013.5 hpa

94 %

0.0 km/h aus 117

0.0 km/h aus ---

14.7 C

15.9 C

15.7 C

15.9 C

278 W/m

0.00 mm

07:50

15.8 C

1013.5 hpa

94 %

0.0 km/h aus 117

3.2 km/h aus W

14.9 C

16.1 C

15.8 C

16.1 C

294 W/m

0.00 mm

07:55

16.1 C

1013.5 hpa

94 %

0.0 km/h aus 114

3.2 km/h aus W

15.1 C

16.3 C

16.1 C

16.3 C

310 W/m

0.00 mm

08:00

16.2 C

1013.3 hpa

94 %

0.0 km/h aus 118

3.2 km/h aus W

15.3 C

16.5 C

16.2 C

16.5 C

322 W/m

0.00 mm

08:05

16.4 C

1013.3 hpa

94 %

0.0 km/h aus 117

3.2 km/h aus WSW

15.4 C

16.7 C

16.4 C

16.7 C

337 W/m

0.00 mm

08:10

16.5 C

1013.3 hpa

93 %

0.0 km/h aus 116

1.6 km/h aus W

15.4 C

16.8 C

16.5 C

16.8 C

352 W/m

0.00 mm

08:15

16.8 C

1013.3 hpa

93 %

0.0 km/h aus 116

3.2 km/h aus WSW

15.6 C

17.1 C

16.8 C

17.1 C

365 W/m

0.00 mm

08:20

17.0 C

1013.3 hpa

93 %

0.0 km/h aus 115

4.8 km/h aus WSW

15.9 C

17.4 C

17.0 C

17.4 C

378 W/m

0.00 mm

08:25

17.2 C

1013.3 hpa

92 %

0.0 km/h aus 117

1.6 km/h aus WSW

15.9 C

17.6 C

17.2 C

17.6 C

392 W/m

0.00 mm

08:30

17.4 C

1013.3 hpa

91 %

0.0 km/h aus 117

4.8 km/h aus WSW

16.0 C

17.9 C

17.4 C

17.9 C

402 W/m

0.00 mm

08:35

17.7 C

1013.3 hpa

91 %

1.6 km/h aus 116

6.4 km/h aus WSW

16.2 C

18.2 C

17.7 C

18.2 C

413 W/m

0.00 mm

08:40

18.0 C

1013.3 hpa

91 %

1.6 km/h aus 115

6.4 km/h aus WSW

16.5 C

18.5 C

18.0 C

18.5 C

425 W/m

0.00 mm

08:45

18.3 C

1013.3 hpa

89 %

1.6 km/h aus 115

6.4 km/h aus WSW

16.5 C

18.9 C

18.3 C

18.9 C

435 W/m

0.00 mm

08:50

18.2 C

1013.3 hpa

84 %

1.6 km/h aus 116

4.8 km/h aus WSW

15.5 C

18.6 C

18.2 C

18.6 C

446 W/m

0.00 mm

08:55

18.4 C

1013.3 hpa

83 %

1.6 km/h aus 117

4.8 km/h aus WSW

15.4 C

18.8 C

18.4 C

18.8 C

456 W/m

0.00 mm

09:00

18.6 C

1013.3 hpa

81 %

1.6 km/h aus 115

4.8 km/h aus WSW

15.2 C

19.0 C

18.6 C

19.0 C

468 W/m

0.00 mm

09:05

18.8 C

1013.3 hpa

79 %

3.2 km/h aus 116

6.4 km/h aus WSW

15.1 C

19.3 C

18.8 C

19.3 C

477 W/m

0.00 mm

09:10

19.0 C

1013.3 hpa

81 %

1.6 km/h aus 116

6.4 km/h aus WSW

15.7 C

19.6 C

19.0 C

19.6 C

485 W/m

0.00 mm

09:15

19.0 C

1013.3 hpa

78 %

1.6 km/h aus 117

6.4 km/h aus WSW

15.1 C

19.4 C

19.0 C

19.4 C

492 W/m

0.00 mm

09:20

19.2 C

1013.3 hpa

78 %

1.6 km/h aus 116

6.4 km/h aus WSW

15.3 C

19.7 C

19.2 C

19.7 C

496 W/m

0.00 mm

09:25

19.2 C

1013.3 hpa

77 %

1.6 km/h aus 114

6.4 km/h aus WSW

15.0 C

19.6 C

19.2 C

19.6 C

502 W/m

0.00 mm

09:30

19.4 C

1013.4 hpa

77 %

3.2 km/h aus 116

6.4 km/h aus WSW

15.3 C

19.9 C

19.4 C

19.9 C

513 W/m

0.00 mm

09:35

19.7 C

1013.4 hpa

78 %

1.6 km/h aus 117

6.4 km/h aus W

15.7 C

20.2 C

19.7 C

20.2 C

515 W/m

0.00 mm

09:40

20.0 C

1013.4 hpa

75 %

1.6 km/h aus 116

8.0 km/h aus WSW

15.4 C

20.5 C

20.0 C

20.5 C

522 W/m

0.00 mm

09:45

19.9 C

1013.3 hpa

75 %

3.2 km/h aus 114

8.0 km/h aus WSW

15.4 C

20.4 C

19.9 C

20.4 C

528 W/m

0.00 mm

09:50

20.2 C

1013.3 hpa

78 %

3.2 km/h aus 115

11.3 km/h aus S

16.2 C

20.8 C

20.2 C

20.8 C

539 W/m

0.00 mm

09:55

20.1 C

1013.3 hpa

73 %

4.8 km/h aus 117

9.7 km/h aus SSW

15.1 C

20.6 C

20.1 C

20.6 C

536 W/m

0.00 mm

10:00

20.3 C

1013.3 hpa

76 %

1.6 km/h aus 116

6.4 km/h aus SW

16.0 C

20.9 C

20.3 C

20.9 C

543 W/m

0.00 mm

10:05

20.5 C

1013.3 hpa

73 %

4.8 km/h aus 116

9.7 km/h aus WSW

15.5 C

20.9 C

20.5 C

20.9 C

557 W/m

0.00 mm

10:10

20.7 C

1013.3 hpa

73 %

1.6 km/h aus 115

8.0 km/h aus W

15.7 C

21.1 C

20.7 C

21.1 C

565 W/m

0.00 mm

10:15

20.9 C

1013.3 hpa

73 %

3.2 km/h aus 116

8.0 km/h aus SW

15.9 C

21.2 C

20.9 C

21.2 C

523 W/m

0.00 mm

10:20

21.1 C

1013.3 hpa

73 %

6.4 km/h aus 117

14.5 km/h aus S

16.1 C

21.3 C

21.1 C

21.3 C

576 W/m

0.00 mm

10:25

21.1 C

1013.3 hpa

70 %

4.8 km/h aus 117

11.3 km/h aus S

15.4 C

21.2 C

21.1 C

21.2 C

601 W/m

0.00 mm

10:30

21.1 C

1013.0 hpa

73 %

4.8 km/h aus 114

8.0 km/h aus SSW

16.0 C

21.3 C

21.1 C

21.3 C

593 W/m

0.00 mm

10:35

20.8 C

1013.0 hpa

70 %

4.8 km/h aus 116

8.0 km/h aus NW

15.1 C

20.9 C

20.8 C

20.9 C

230 W/m

0.00 mm

10:40

20.3 C

1013.0 hpa

74 %

4.8 km/h aus 116

8.0 km/h aus WNW

15.5 C

20.8 C

20.3 C

20.8 C

307 W/m

0.00 mm

10:45

20.4 C

1012.8 hpa

75 %

1.6 km/h aus 117

4.8 km/h aus WNW

15.8 C

20.9 C

20.4 C

20.9 C

437 W/m

0.00 mm

10:50

20.8 C

1012.8 hpa

73 %

0.0 km/h aus 116

3.2 km/h aus WNW

15.8 C

21.1 C

20.8 C

21.1 C

617 W/m

0.00 mm

10:55

20.8 C

1012.8 hpa

72 %

3.2 km/h aus 115

6.4 km/h aus WNW

15.5 C

21.1 C

20.8 C

21.1 C

367 W/m

0.00 mm

11:00

20.6 C

1012.8 hpa

72 %

3.2 km/h aus 116

6.4 km/h aus WNW

15.4 C

20.9 C

20.6 C

20.9 C

328 W/m

0.00 mm

11:05

20.6 C

1012.8 hpa

73 %

1.6 km/h aus 116

4.8 km/h aus WNW

15.6 C

21.0 C

20.6 C

21.0 C

299 W/m

0.00 mm

11:10

20.5 C

1012.8 hpa

70 %

0.0 km/h aus 118

6.4 km/h aus WNW

14.8 C

20.7 C

20.5 C

20.7 C

172 W/m

0.00 mm

11:15

20.3 C

1012.8 hpa

69 %

1.6 km/h aus 113

6.4 km/h aus W

14.5 C

20.6 C

20.3 C

20.6 C

414 W/m

0.00 mm

11:20

20.9 C

1012.8 hpa

70 %

0.0 km/h aus 117

4.8 km/h aus W

15.2 C

21.0 C

20.9 C

21.0 C

614 W/m

0.00 mm

11:25

20.8 C

1012.8 hpa

67 %

4.8 km/h aus 116

9.7 km/h aus SSW

14.4 C

20.8 C

20.8 C

20.8 C

283 W/m

0.00 mm

11:30

20.6 C

1012.7 hpa

67 %

4.8 km/h aus 116

9.7 km/h aus W

14.3 C

20.7 C

20.6 C

20.7 C

314 W/m

0.00 mm

11:35

21.1 C

1012.7 hpa

67 %

1.6 km/h aus 114

9.7 km/h aus WSW

14.7 C

21.0 C

21.1 C

21.0 C

541 W/m

0.00 mm

11:40

21.0 C

1012.7 hpa

67 %

4.8 km/h aus 115

9.7 km/h aus W

14.6 C

20.9 C

21.0 C

20.9 C

236 W/m

0.00 mm

11:45

20.8 C

1012.6 hpa

67 %

3.2 km/h aus 117

6.4 km/h aus W

14.4 C

20.8 C

20.8 C

20.8 C

236 W/m

0.00 mm

11:50

21.3 C

1012.6 hpa

65 %

1.6 km/h aus 117

8.0 km/h aus W

14.5 C

21.2 C

21.3 C

21.2 C

625 W/m

0.00 mm

11:55

21.5 C

1012.6 hpa

66 %

0.0 km/h aus 115

6.4 km/h aus W

14.9 C

21.4 C

21.5 C

21.4 C

609 W/m

0.00 mm

12:00

21.7 C

1012.3 hpa

65 %

0.0 km/h aus 114

3.2 km/h aus W

14.9 C

21.7 C

21.7 C

21.7 C

506 W/m

0.00 mm

12:05

21.8 C

1012.3 hpa

63 %

1.6 km/h aus 117

9.7 km/h aus WSW

14.5 C

21.8 C

21.8 C

21.8 C

635 W/m

0.00 mm

12:10

21.9 C

1012.3 hpa

64 %

3.2 km/h aus 118

8.0 km/h aus WSW

14.8 C

21.9 C

21.9 C

21.9 C

319 W/m

0.00 mm

12:15

21.9 C

1012.3 hpa

63 %

4.8 km/h aus 116

8.0 km/h aus W

14.5 C

21.8 C

21.9 C

21.8 C

528 W/m

0.00 mm

12:20

22.4 C

1012.3 hpa

62 %

3.2 km/h aus 115

6.4 km/h aus WSW

14.8 C

22.6 C

22.4 C

22.6 C

637 W/m

0.00 mm

12:25

22.5 C

1012.3 hpa

61 %

3.2 km/h aus 115

8.0 km/h aus W

14.6 C

22.6 C

22.5 C

22.6 C

442 W/m

0.00 mm

12:30

21.6 C

1012.3 hpa

63 %

0.0 km/h aus 116

6.4 km/h aus W

14.2 C

21.4 C

21.6 C

21.4 C

249 W/m

0.00 mm

12:35

21.5 C

1012.3 hpa

65 %

0.0 km/h aus 116

3.2 km/h aus W

14.6 C

21.4 C

21.5 C

21.4 C

283 W/m

0.00 mm

12:40

21.5 C

1012.3 hpa

65 %

0.0 km/h aus 116

0.0 km/h aus ---

14.6 C

21.4 C

21.5 C

21.4 C

281 W/m

0.00 mm

12:45

21.5 C

1012.2 hpa

65 %

1.6 km/h aus 115

8.0 km/h aus W

14.6 C

21.4 C

21.5 C

21.4 C

285 W/m

0.00 mm

12:50

21.7 C

1012.2 hpa

63 %

3.2 km/h aus 117

8.0 km/h aus WNW

14.3 C

21.5 C

21.7 C

21.5 C

315 W/m

0.00 mm

12:55

22.3 C

1012.2 hpa

61 %

1.6 km/h aus 117

6.4 km/h aus W

14.4 C

22.4 C

22.3 C

22.4 C

623 W/m

0.00 mm

13:00

22.9 C

1012.2 hpa

64 %

1.6 km/h aus 116

9.7 km/h aus SW

15.8 C

23.4 C

22.9 C

23.4 C

615 W/m

0.00 mm

13:05

23.2 C

1012.2 hpa

63 %

3.2 km/h aus 115

8.0 km/h aus WNW

15.8 C

23.7 C

23.2 C

23.7 C

594 W/m

0.00 mm

13:10

23.1 C

1012.2 hpa

61 %

3.2 km/h aus 116

8.0 km/h aus W

15.2 C

23.5 C

23.1 C

23.5 C

615 W/m

0.00 mm

13:15

23.6 C

1012.0 hpa

60 %

4.8 km/h aus 115

8.0 km/h aus NW

15.4 C

24.1 C

23.6 C

24.1 C

614 W/m

0.00 mm

13:20

23.0 C

1012.0 hpa

60 %

0.0 km/h aus 117

3.2 km/h aus NW

14.8 C

23.3 C

23.0 C

23.3 C

604 W/m

0.00 mm

13:25

23.2 C

1012.0 hpa

59 %

3.2 km/h aus 112

12.9 km/h aus SSW

14.8 C

23.5 C

23.2 C

23.5 C

620 W/m

0.00 mm

13:30

22.8 C

1011.8 hpa

56 %

8.0 km/h aus 116

17.7 km/h aus SSE

13.6 C

22.9 C

22.8 C

22.9 C

337 W/m

0.00 mm

13:35

22.5 C

1011.8 hpa

61 %

1.6 km/h aus 117

4.8 km/h aus SSE

14.6 C

22.6 C

22.5 C

22.6 C

344 W/m

0.00 mm

13:40

22.7 C

1011.8 hpa

59 %

0.0 km/h aus 117

1.6 km/h aus SSE

14.2 C

22.8 C

22.7 C

22.8 C

387 W/m

0.00 mm

13:45

23.6 C

1011.7 hpa

56 %

3.2 km/h aus 115

11.3 km/h aus WSW

14.3 C

23.8 C

23.6 C

23.8 C

618 W/m

0.00 mm

13:50

23.5 C

1011.7 hpa

57 %

6.4 km/h aus 115

12.9 km/h aus SSW

14.5 C

23.8 C

23.5 C

23.8 C

602 W/m

0.00 mm

13:55

23.3 C

1011.7 hpa

55 %

4.8 km/h aus 117

14.5 km/h aus SSW

13.7 C

23.4 C

23.3 C

23.4 C

458 W/m

0.00 mm

14:00

22.8 C

1011.4 hpa

59 %

4.8 km/h aus 116

9.7 km/h aus SSW

14.4 C

23.0 C

22.8 C

23.0 C

275 W/m

0.00 mm

14:05

22.6 C

1011.4 hpa

58 %

1.6 km/h aus 117

6.4 km/h aus WNW

13.9 C

22.6 C

22.6 C

22.6 C

361 W/m

0.00 mm

14:10

23.5 C

1011.4 hpa

56 %

1.6 km/h aus 114

6.4 km/h aus WNW

14.2 C

23.7 C

23.5 C

23.7 C

614 W/m

0.00 mm

14:15

23.6 C

1011.2 hpa

59 %

0.0 km/h aus 117

1.6 km/h aus WNW

15.1 C

24.0 C

23.6 C

24.0 C

619 W/m

0.00 mm

14:20

24.3 C

1011.2 hpa

50 %

0.0 km/h aus 116

1.6 km/h aus WNW

13.2 C

24.3 C

24.3 C

24.3 C

609 W/m

0.00 mm

14:25

23.9 C

1011.2 hpa

55 %

0.0 km/h aus 117

3.2 km/h aus WNW

14.3 C

24.2 C

23.9 C

24.2 C

535 W/m

0.00 mm

14:30

23.3 C

1011.1 hpa

58 %

1.6 km/h aus 114

6.4 km/h aus W

14.6 C

23.6 C

23.3 C

23.6 C

315 W/m

0.00 mm

14:35

23.1 C

1011.1 hpa

60 %

0.0 km/h aus 116

4.8 km/h aus W

14.9 C

23.4 C

23.1 C

23.4 C

490 W/m

0.00 mm

14:40

24.1 C

1011.1 hpa

57 %

0.0 km/h aus 117

8.0 km/h aus W

15.0 C

24.4 C

24.1 C

24.4 C

628 W/m

0.00 mm

14:45

23.6 C

1011.1 hpa

53 %

4.8 km/h aus 115

9.7 km/h aus WSW

13.5 C

23.7 C

23.6 C

23.7 C

285 W/m

0.00 mm

14:50

23.2 C

1011.1 hpa

54 %

3.2 km/h aus 115

6.4 km/h aus WSW

13.4 C

23.3 C

23.2 C

23.3 C

260 W/m

0.00 mm

14:55

22.8 C

1011.1 hpa

56 %

0.0 km/h aus 116

6.4 km/h aus W

13.6 C

22.9 C

22.8 C

22.9 C

285 W/m

0.00 mm

15:00

23.1 C

1011.0 hpa

56 %

3.2 km/h aus 117

8.0 km/h aus W

13.8 C

23.2 C

23.1 C

23.2 C

258 W/m

0.00 mm

15:05

23.2 C

1011.0 hpa

54 %

1.6 km/h aus 114

6.4 km/h aus W

13.3 C

23.2 C

23.2 C

23.2 C

366 W/m

0.00 mm

15:10

22.9 C

1011.0 hpa

56 %

1.6 km/h aus 114

6.4 km/h aus W

13.6 C

22.9 C

22.9 C

22.9 C

273 W/m

0.00 mm

15:15

22.8 C

1010.8 hpa

58 %

0.0 km/h aus 115

0.0 km/h aus ---

14.1 C

22.9 C

22.8 C

22.9 C

242 W/m

0.00 mm

15:20

23.3 C

1010.8 hpa

57 %

0.0 km/h aus 118

1.6 km/h aus WNW

14.3 C

23.6 C

23.3 C

23.6 C

457 W/m

0.00 mm

15:25

24.6 C

1010.8 hpa

50 %

1.6 km/h aus 117

6.4 km/h aus WSW

13.4 C

24.6 C

24.6 C

24.6 C

627 W/m

0.00 mm

15:30

24.3 C

1010.7 hpa

50 %

0.0 km/h aus 117

4.8 km/h aus NE

13.2 C

24.3 C

24.3 C

24.3 C

617 W/m

0.00 mm

15:35

24.4 C

1010.7 hpa

52 %

1.6 km/h aus 114

6.4 km/h aus NE

13.9 C

24.4 C

24.4 C

24.4 C

238 W/m

0.00 mm

15:40

23.8 C

1010.7 hpa

54 %

1.6 km/h aus 117

4.8 km/h aus WNW

13.9 C

24.0 C

23.8 C

24.0 C

259 W/m

0.00 mm

15:45

23.8 C

1010.6 hpa

56 %

1.6 km/h aus 116

6.4 km/h aus NNW

14.5 C

24.2 C

23.8 C

24.2 C

530 W/m

0.00 mm

15:50

24.2 C

1010.6 hpa

52 %

1.6 km/h aus 114

6.4 km/h aus NNW

13.7 C

24.3 C

24.2 C

24.3 C

589 W/m

0.00 mm

15:55

23.8 C

1010.6 hpa

55 %

1.6 km/h aus 114

4.8 km/h aus NNW

14.2 C

24.1 C

23.8 C

24.1 C

296 W/m

0.00 mm

16:00

24.4 C

1010.5 hpa

55 %

0.0 km/h aus 116

4.8 km/h aus NNW

14.8 C

24.6 C

24.4 C

24.6 C

602 W/m

0.00 mm

16:05

24.9 C

1010.5 hpa

52 %

0.0 km/h aus 117

3.2 km/h aus NNW

14.4 C

24.9 C

24.9 C

24.9 C

602 W/m

0.00 mm

16:10

24.4 C

1010.5 hpa

52 %

1.6 km/h aus 116

4.8 km/h aus NNW

13.9 C

24.4 C

24.4 C

24.4 C

475 W/m

0.00 mm

16:15

24.8 C

1010.4 hpa

52 %

1.6 km/h aus 114

6.4 km/h aus NNW

14.3 C

24.8 C

24.8 C

24.8 C

592 W/m

0.00 mm

16:20

24.8 C

1010.4 hpa

52 %

1.6 km/h aus 115

8.0 km/h aus N

14.3 C

24.8 C

24.8 C

24.8 C

594 W/m

0.00 mm

16:25

24.4 C

1010.4 hpa

52 %

1.6 km/h aus 118

6.4 km/h aus NNW

13.9 C

24.5 C

24.4 C

24.5 C

263 W/m

0.00 mm

16:30

24.3 C

1010.4 hpa

55 %

1.6 km/h aus 116

6.4 km/h aus NNW

14.7 C

24.5 C

24.3 C

24.5 C

375 W/m

0.00 mm

16:35

24.2 C

1010.4 hpa

55 %

1.6 km/h aus 115

4.8 km/h aus NW

14.6 C

24.4 C

24.2 C

24.4 C

267 W/m

0.00 mm

16:40

24.6 C

1010.4 hpa

53 %

1.6 km/h aus 115

4.8 km/h aus NW

14.4 C

24.7 C

24.6 C

24.7 C

579 W/m

0.00 mm

16:45

25.0 C

1010.2 hpa

50 %

0.0 km/h aus 115

6.4 km/h aus NW

13.9 C

24.9 C

25.0 C

24.9 C

578 W/m

0.00 mm

16:50

25.3 C

1010.2 hpa

51 %

4.8 km/h aus 107

12.9 km/h aus NNW

14.4 C

25.3 C

25.3 C

25.3 C

590 W/m

0.00 mm

16:55

25.1 C

1010.2 hpa

52 %

3.2 km/h aus 112

8.0 km/h aus NW

14.6 C

25.1 C

25.1 C

25.1 C

575 W/m

0.00 mm

17:00

25.2 C

1010.1 hpa

50 %

1.6 km/h aus 113

6.4 km/h aus NNW

14.0 C

25.1 C

25.2 C

25.1 C

562 W/m

0.00 mm

17:05

25.2 C

1010.1 hpa

51 %

3.2 km/h aus 114

8.0 km/h aus WNW

14.4 C

25.2 C

25.2 C

25.2 C

563 W/m

0.00 mm

17:10

25.1 C

1010.1 hpa

51 %

1.6 km/h aus 117

8.0 km/h aus NW

14.3 C

25.1 C

25.1 C

25.1 C

563 W/m

0.00 mm

17:15

24.9 C

1010.1 hpa

51 %

1.6 km/h aus 116

6.4 km/h aus WNW

14.1 C

24.9 C

24.9 C

24.9 C

542 W/m

0.00 mm

17:20

25.0 C

1010.1 hpa

50 %

1.6 km/h aus 114

6.4 km/h aus NW

13.9 C

24.9 C

25.0 C

24.9 C

556 W/m

0.00 mm

17:25

25.2 C

1010.1 hpa

51 %

0.0 km/h aus 116

3.2 km/h aus NW

14.3 C

25.2 C

25.2 C

25.2 C

557 W/m

0.00 mm

17:30

25.0 C

1010.1 hpa

51 %

0.0 km/h aus 118

4.8 km/h aus NW

14.2 C

24.9 C

25.0 C

24.9 C

554 W/m

0.00 mm

17:35

25.2 C

1010.1 hpa

51 %

1.6 km/h aus 117

4.8 km/h aus NW

14.4 C

25.2 C

25.2 C

25.2 C

547 W/m

0.00 mm

17:40

25.2 C

1010.1 hpa

50 %

4.8 km/h aus 108

11.3 km/h aus N

14.0 C

25.1 C

25.2 C

25.1 C

534 W/m

0.00 mm

17:45

24.9 C

1010.0 hpa

55 %

3.2 km/h aus 112

9.7 km/h aus N

15.2 C

25.1 C

24.9 C

25.1 C

526 W/m

0.00 mm

17:50

24.8 C

1010.0 hpa

53 %

1.6 km/h aus 117

8.0 km/h aus N

14.5 C

24.8 C

24.8 C

24.8 C

429 W/m

0.00 mm

17:55

24.6 C

1010.0 hpa

55 %

1.6 km/h aus 117

6.4 km/h aus NNW

14.9 C

24.7 C

24.6 C

24.7 C

487 W/m

0.00 mm

18:00

24.7 C

1009.9 hpa

52 %

3.2 km/h aus 117

8.0 km/h aus NNW

14.2 C

24.7 C

24.7 C

24.7 C

489 W/m

0.00 mm

18:05

24.6 C

1009.9 hpa

53 %

3.2 km/h aus 112

8.0 km/h aus NNW

14.3 C

24.7 C

24.6 C

24.7 C

380 W/m

0.00 mm

18:10

24.1 C

1009.9 hpa

57 %

1.6 km/h aus 116

6.4 km/h aus NNW

15.0 C

24.4 C

24.1 C

24.4 C

128 W/m

0.00 mm

18:15

24.3 C

1009.8 hpa

54 %

0.0 km/h aus 117

3.2 km/h aus NNW

14.4 C

24.4 C

24.3 C

24.4 C

376 W/m

0.00 mm

18:20

24.4 C

1009.8 hpa

54 %

0.0 km/h aus 115

3.2 km/h aus NNW

14.5 C

24.6 C

24.4 C

24.6 C

407 W/m

0.00 mm

18:25

24.3 C

1009.8 hpa

53 %

1.6 km/h aus 112

6.4 km/h aus NW

14.1 C

24.4 C

24.3 C

24.4 C

179 W/m

0.00 mm

18:30

24.2 C

1009.6 hpa

53 %

1.6 km/h aus 116

4.8 km/h aus NW

14.0 C

24.3 C

24.2 C

24.3 C

97 W/m

0.00 mm

18:35

23.9 C

1009.6 hpa

56 %

0.0 km/h aus 117

3.2 km/h aus NW

14.6 C

24.2 C

23.9 C

24.2 C

253 W/m

0.00 mm

18:40

24.1 C

1009.6 hpa

56 %

0.0 km/h aus 116

3.2 km/h aus NW

14.7 C

24.3 C

24.1 C

24.3 C

336 W/m

0.00 mm

18:45

24.2 C

1009.6 hpa

53 %

1.6 km/h aus 116

4.8 km/h aus NNW

14.0 C

24.3 C

24.2 C

24.3 C

353 W/m

0.00 mm

18:50

24.2 C

1009.6 hpa

53 %

1.6 km/h aus 115

8.0 km/h aus NNW

14.0 C

24.3 C

24.2 C

24.3 C

344 W/m

0.00 mm

18:55

24.2 C

1009.6 hpa

53 %

0.0 km/h aus 117

1.6 km/h aus NW

14.0 C

24.3 C

24.2 C

24.3 C

340 W/m

0.00 mm

19:00

24.1 C

1009.6 hpa

54 %

1.6 km/h aus 112

9.7 km/h aus NNW

14.2 C

24.3 C

24.1 C

24.3 C

215 W/m

0.00 mm

19:05

24.1 C

1009.6 hpa

56 %

1.6 km/h aus 115

8.0 km/h aus NNW

14.8 C

24.4 C

24.1 C

24.4 C

101 W/m

0.00 mm

19:10

24.2 C

1009.6 hpa

56 %

1.6 km/h aus 109

8.0 km/h aus NNW

14.8 C

24.4 C

24.2 C

24.4 C

89 W/m

0.00 mm

19:15

24.2 C

1009.5 hpa

56 %

3.2 km/h aus 116

8.0 km/h aus NNW

14.8 C

24.4 C

24.2 C

24.4 C

76 W/m

0.00 mm

19:20

24.1 C

1009.5 hpa

56 %

1.6 km/h aus 117

6.4 km/h aus NNW

14.7 C

24.3 C

24.1 C

24.3 C

71 W/m

0.00 mm

19:25

24.0 C

1009.5 hpa

56 %

1.6 km/h aus 117

8.0 km/h aus NW

14.7 C

24.3 C

24.0 C

24.3 C

61 W/m

0.00 mm

19:30

23.9 C

1009.5 hpa

56 %

1.6 km/h aus 114

6.4 km/h aus NNW

14.6 C

24.2 C

23.9 C

24.2 C

60 W/m

0.00 mm

19:35

23.8 C

1009.5 hpa

56 %

0.0 km/h aus 117

1.6 km/h aus NNW

14.5 C

24.1 C

23.8 C

24.1 C

63 W/m

0.00 mm

19:40

23.7 C

1009.5 hpa

57 %

1.6 km/h aus 117

4.8 km/h aus NNW

14.7 C

24.1 C

23.7 C

24.1 C

71 W/m

0.00 mm

19:45

23.6 C

1009.5 hpa

58 %

0.0 km/h aus 117

3.2 km/h aus NNW

14.9 C

23.9 C

23.6 C

23.9 C

76 W/m

0.00 mm

19:50

23.6 C

1009.5 hpa

58 %

0.0 km/h aus 114

1.6 km/h aus NNW

14.8 C

23.9 C

23.6 C

23.9 C

77 W/m

0.00 mm

19:55

23.4 C

1009.5 hpa

58 %

0.0 km/h aus 116

0.0 km/h aus ---

14.7 C

23.7 C

23.4 C

23.7 C

69 W/m

0.00 mm

20:00

23.4 C

1009.4 hpa

59 %

0.0 km/h aus 116

0.0 km/h aus ---

14.9 C

23.7 C

23.4 C

23.7 C

55 W/m

0.00 mm

20:05

23.3 C

1009.4 hpa

60 %

0.0 km/h aus 117

0.0 km/h aus ---

15.1 C

23.7 C

23.3 C

23.7 C

54 W/m

0.00 mm

20:10

23.3 C

1009.4 hpa

60 %

0.0 km/h aus 115

0.0 km/h aus ---

15.1 C

23.7 C

23.3 C

23.7 C

58 W/m

0.00 mm

20:15

23.2 C

1009.4 hpa

61 %

0.0 km/h aus 115

0.0 km/h aus ---

15.2 C

23.6 C

23.2 C

23.6 C

61 W/m

0.00 mm

20:20

23.1 C

1009.4 hpa

61 %

0.0 km/h aus 117

0.0 km/h aus ---

15.2 C

23.5 C

23.1 C

23.5 C

58 W/m

0.00 mm

20:25

23.0 C

1009.4 hpa

61 %

0.0 km/h aus 116

0.0 km/h aus ---

15.1 C

23.3 C

23.0 C

23.3 C

54 W/m

0.00 mm

20:30

22.9 C

1009.4 hpa

62 %

0.0 km/h aus 117

0.0 km/h aus ---

15.2 C

23.2 C

22.9 C

23.2 C

47 W/m

0.00 mm

20:35

22.8 C

1009.4 hpa

62 %

0.0 km/h aus 114

0.0 km/h aus ---

15.2 C

23.2 C

22.8 C

23.2 C

41 W/m

0.00 mm

20:40

22.7 C

1009.4 hpa

62 %

0.0 km/h aus 117

0.0 km/h aus ---

15.1 C

23.0 C

22.7 C

23.0 C

35 W/m

0.00 mm

20:45

22.7 C

1009.3 hpa

63 %

0.0 km/h aus 117

0.0 km/h aus ---

15.3 C

22.9 C

22.7 C

22.9 C

30 W/m

0.00 mm

20:50

22.6 C

1009.3 hpa

63 %

0.0 km/h aus 116

0.0 km/h aus ---

15.2 C

22.8 C

22.6 C

22.8 C

26 W/m

0.00 mm

20:55

22.4 C

1009.3 hpa

63 %

0.0 km/h aus 115

0.0 km/h aus ---

15.1 C

22.6 C

22.4 C

22.6 C

23 W/m

0.00 mm

21:00

22.3 C

1009.1 hpa

63 %

0.0 km/h aus 116

0.0 km/h aus ---

14.9 C

22.4 C

22.3 C

22.4 C

20 W/m

0.00 mm

21:05

22.2 C

1009.1 hpa

64 %

0.0 km/h aus 117

0.0 km/h aus ---

15.1 C

22.3 C

22.2 C

22.3 C

17 W/m

0.00 mm

21:10

22.1 C

1009.1 hpa

64 %

0.0 km/h aus 117

0.0 km/h aus ---

14.9 C

22.1 C

22.1 C

22.1 C

13 W/m

0.00 mm

21:15

21.9 C

1009.1 hpa

65 %

0.0 km/h aus 115

0.0 km/h aus ---

15.0 C

21.9 C

21.9 C

21.9 C

12 W/m

0.00 mm

21:20

21.7 C

1009.1 hpa

66 %

0.0 km/h aus 114

0.0 km/h aus ---

15.0 C

21.7 C

21.7 C

21.7 C

11 W/m

0.00 mm

21:25

21.4 C

1009.1 hpa

66 %

0.0 km/h aus 117

0.0 km/h aus ---

14.8 C

21.4 C

21.4 C

21.4 C

10 W/m

0.00 mm

21:30

21.2 C

1009.2 hpa

67 %

0.0 km/h aus 116

0.0 km/h aus ---

14.8 C

21.2 C

21.2 C

21.2 C

8 W/m

0.00 mm

21:35

21.0 C

1009.2 hpa

68 %

0.0 km/h aus 116

0.0 km/h aus ---

14.9 C

21.0 C

21.0 C

21.0 C

5 W/m

0.00 mm

21:40

20.8 C

1009.2 hpa

69 %

0.0 km/h aus 111

0.0 km/h aus ---

14.9 C

20.9 C

20.8 C

20.9 C

3 W/m

0.00 mm

21:45

20.5 C

1009.3 hpa

69 %

0.0 km/h aus 117

0.0 km/h aus ---

14.6 C

20.7 C

20.5 C

20.7 C

0 W/m

0.00 mm

21:50

20.3 C

1009.3 hpa

70 %

0.0 km/h aus 117

0.0 km/h aus ---

14.7 C

20.6 C

20.3 C

20.6 C

0 W/m

0.00 mm

21:55

20.1 C

1009.3 hpa

71 %

0.0 km/h aus 117

0.0 km/h aus ---

14.6 C

20.4 C

20.1 C

20.4 C

0 W/m

0.00 mm

22:00

19.9 C

1009.5 hpa

71 %

0.0 km/h aus 116

0.0 km/h aus ---

14.5 C

20.2 C

19.9 C

20.2 C

0 W/m

0.00 mm

22:05

19.7 C

1009.5 hpa

72 %

0.0 km/h aus 114

0.0 km/h aus ---

14.5 C

20.1 C

19.7 C

20.1 C

0 W/m

0.00 mm

22:10

19.6 C

1009.5 hpa

72 %

0.0 km/h aus 117

0.0 km/h aus ---

14.4 C

19.9 C

19.6 C

19.9 C

0 W/m

0.00 mm

22:15

19.4 C

1009.5 hpa

73 %

0.0 km/h aus 117

0.0 km/h aus ---

14.4 C

19.7 C

19.4 C

19.7 C

0 W/m

0.00 mm

22:20

19.2 C

1009.5 hpa

74 %

0.0 km/h aus 117

0.0 km/h aus ---

14.4 C

19.4 C

19.2 C

19.4 C

0 W/m

0.00 mm

22:25

19.1 C

1009.5 hpa

74 %

0.0 km/h aus 115

0.0 km/h aus ---

14.3 C

19.3 C

19.1 C

19.3 C

0 W/m

0.00 mm

22:30

18.8 C

1009.4 hpa

75 %

0.0 km/h aus 115

0.0 km/h aus ---

14.3 C

19.1 C

18.8 C

19.1 C

0 W/m

0.00 mm

22:35

18.7 C

1009.4 hpa

76 %

0.0 km/h aus 117

0.0 km/h aus ---

14.3 C

18.9 C

18.7 C

18.9 C

0 W/m

0.00 mm

22:40

18.6 C

1009.4 hpa

76 %

0.0 km/h aus 117

0.0 km/h aus ---

14.2 C

18.8 C

18.6 C

18.8 C

0 W/m

0.00 mm

22:45

18.4 C

1009.4 hpa

76 %

0.0 km/h aus 118

0.0 km/h aus ---

14.1 C

18.6 C

18.4 C

18.6 C

0 W/m

0.00 mm

22:50

18.3 C

1009.4 hpa

77 %

0.0 km/h aus 114

0.0 km/h aus ---

14.2 C

18.5 C

18.3 C

18.5 C

0 W/m

0.00 mm

22:55

18.1 C

1009.4 hpa

77 %

0.0 km/h aus 115

0.0 km/h aus ---

14.0 C

18.3 C

18.1 C

18.3 C

0 W/m

0.00 mm

23:00

18.1 C

1009.4 hpa

77 %

0.0 km/h aus 117

0.0 km/h aus ---

14.0 C

18.3 C

18.1 C

18.3 C

0 W/m

0.00 mm

23:05

17.9 C

1009.4 hpa

78 %

0.0 km/h aus 116

0.0 km/h aus ---

14.1 C

18.2 C

17.9 C

18.2 C

0 W/m

0.00 mm

23:10

17.8 C

1009.4 hpa

78 %

0.0 km/h aus 116

0.0 km/h aus ---

13.9 C

17.9 C

17.8 C

17.9 C

0 W/m

0.00 mm

23:15

17.7 C

1009.4 hpa

78 %

0.0 km/h aus 114

0.0 km/h aus ---

13.8 C

17.9 C

17.7 C

17.9 C

0 W/m

0.00 mm

23:20

17.6 C

1009.4 hpa

78 %

0.0 km/h aus 117

0.0 km/h aus ---

13.7 C

17.8 C

17.6 C

17.8 C

0 W/m

0.00 mm

23:25

17.5 C

1009.4 hpa

79 %

0.0 km/h aus 115

0.0 km/h aus ---

13.8 C

17.7 C

17.5 C

17.7 C

0 W/m

0.00 mm

23:30

17.4 C

1009.2 hpa

79 %

0.0 km/h aus 117

0.0 km/h aus ---

13.8 C

17.6 C

17.4 C

17.6 C

0 W/m

0.00 mm

23:35

17.3 C

1009.2 hpa

79 %

0.0 km/h aus 115

0.0 km/h aus ---

13.7 C

17.5 C

17.3 C

17.5 C

0 W/m

0.00 mm

23:40

17.2 C

1009.2 hpa

79 %

0.0 km/h aus 114

0.0 km/h aus ---

13.5 C

17.3 C

17.2 C

17.3 C

0 W/m

0.00 mm

23:45

17.1 C

1009.1 hpa

79 %

0.0 km/h aus 117

0.0 km/h aus ---

13.4 C

17.2 C

17.1 C

17.2 C

0 W/m

0.00 mm

23:50

17.1 C

1009.1 hpa

79 %

0.0 km/h aus 118

0.0 km/h aus ---

13.4 C

17.2 C

17.1 C

17.2 C

0 W/m

0.00 mm

23:55

16.9 C

1009.1 hpa

80 %

0.0 km/h aus 116

0.0 km/h aus ---

13.5 C

17.1 C

16.9 C

17.1 C

0 W/m

0.00 mm